Theta_e
293 292 289 288 289 289 290 289 285 280 281 282 281 285 284 283 281 282 281 280 280 280 281 282 283 284 285 285 286 286 287 287 288 288 288 289 289 290
288 287 286 285 285 286 286 285 286 287 280 283 282 283 283 282 279 280 279 278 279 279 280 281 282 283 283 283 284 284 285 285 286 286 286 287 287 288
286 286 284 284 283 284 284 284 285 284 279 280 282 282 280 280 279 279 278 277 277 278 279 280 281 281 281 282 282 283 283 283 283 283 283 284 285 286
284 283 282 283 281 282 282 282 282 284 280 277 279 279 279 279 277 276 276 276 276 277 279 280 279 279 280 280 280 281 280 280 280 280 281 282 283 284
282 281 280 281 281 281 281 280 280 281 281 278 278 278 278 277 275 276 275 275 275 277 278 277 277 278 278 279 279 279 278 278 278 279 280 281 282 283
281 281 281 281 281 280 280 279 279 278 278 277 276 275 275 275 274 273 272 274 273 275 275 275 276 276 277 277 277 276 276 277 278 279 279 280 280 281
280 281 281 281 282 281 279 278 278 277 276 275 274 274 273 273 271 272 271 272 272 273 272 271 272 271 271 273 273 274 276 277 278 278 278 279 279 280
279 280 281 281 281 282 281 281 279 277 275 275 273 273 272 272 272 271 271 269 267 272 270 269 270 269 270 270 274 276 276 277 277 278 278 278 278 278
280 280 280 280 280 279 280 279 278 278 277 275 273 273 272 272 272 271 270 269 268 270 268 265 269 267 270 271 274 275 276 276 276 277 277 277 277 277
279 279 279 278 278 277 276 275 274 274 275 275 274 273 273 273 272 271 270 269 269 269 269 263 267 266 268 269 273 274 275 274 275 275 275 275 276 276
278 278 278 277 279 279 275 274 273 273 276 276 275 274 274 273 271 270 266 265 263 266 268 266 265 265 266 266 268 272 272 273 273 273 274 274 274 274
278 278 279 278 279 279 276 274 272 272 273 271 272 271 270 269 270 269 267 262 263 262 264 262 263 263 260 265 265 266 267 270 271 272 272 272 272 269
276 276 278 280 279 277 276 274 273 273 272 269 269 269 269 269 269 268 268 266 263 263 267 266 262 262 260 261 263 265 265 266 266 266 269 270 270 270
276 276 277 279 278 276 273 274 274 271 269 267 267 267 267 267 267 267 266 265 266 264 265 264 260 260 259 258 258 262 263 264 264 264 264 267 269 269
276 277 278 277 275 273 272 272 269 268 267 265 266 266 266 266 265 263 263 263 263 263 263 262 261 261 260 258 258 259 260 261 263 262 263 263 262 263
276 274 275 272 271 270 268 269 268 267 266 265 265 266 265 264 263 264 263 263 261 261 264 264 263 261 258 259 259 258 260 258 261 261 262 263 263 262
270 270 269 268 267 267 267 266 266 265 264 265 264 264 264 264 263 263 263 261 260 259 260 262 263 263 262 260 257 258 258 258 260 261 260 259 261 262
268 267 267 268 267 267 267 267 266 264 265 265 264 263 263 262 262 263 262 261 259 259 259 261 261 260 259 260 264 258 258 258 259 259 261 259 258 260
268 268 268 268 268 267 266 266 265 265 262 262 263 263 262 262 261 261 261 260 260 259 260 261 260 258 254 253 258 267 261 261 260 259 259 258 257 259
267 268 268 268 267 266 266 265 265 264 264 263 263 262 261 261 260 260 260 259 259 258 258 259 259 258 256 255 256 258 265 259 258 257 258 260 261 266
268 267 267 267 266 265 265 264 263 263 262 263 263 262 261 260 259 260 260 259 258 257 255 256 258 263 261 259 254 254 257 264 264 261 261 259 258 258
268 267 266 266 265 265 265 264 263 263 263 262 262 262 261 261 260 259 259 258 258 258 258 259 260 259 258 256 254 255 256 258 263 265 266 265 260 257
267 267 266 266 265 264 263 263 263 263 263 262 262 262 261 260 260 260 259 258 257 257 257 256 257 258 257 257 256 256 256 256 257 257 258 265 267 268
Wind_Speed
11 11 8 5 6 5 6 6 8 6 4 8 5 7 5 5 5 3 1 4 5 6 9 11 12 14 14 15 16 18 19 20 21 22 24 25 25 24
9 14 11 7 7 7 6 4 3 6 5 8 5 8 6 5 5 2 0 3 6 7 10 12 14 14 14 15 17 18 20 21 22 23 24 25 25 26
13 15 13 12 8 7 6 4 4 7 10 6 7 7 6 5 5 2 1 3 4 8 10 13 14 14 15 17 19 20 21 22 22 22 23 24 25 26
15 16 13 10 12 8 5 7 6 5 10 14 8 5 6 3 1 2 2 2 4 8 12 14 13 13 16 18 20 21 21 21 22 23 24 24 25 25
14 17 15 13 10 8 7 8 6 6 8 8 7 4 3 2 0 1 3 4 4 9 12 12 12 15 18 20 21 21 21 20 22 23 24 25 25 26
13 14 13 12 12 9 8 8 7 8 8 7 5 5 2 3 1 2 3 3 4 5 9 8 11 16 18 19 20 20 20 21 22 25 24 24 24 25
14 13 13 14 16 12 6 7 7 7 6 6 5 4 3 3 1 1 3 5 6 2 3 5 6 8 8 12 16 19 20 22 23 22 23 23 23 24
15 14 12 15 16 18 16 13 8 7 7 5 4 4 4 2 1 2 3 4 4 1 6 10 7 8 6 5 17 22 23 23 23 21 22 23 24 26
14 12 11 10 12 12 17 18 14 12 8 5 6 4 3 2 1 3 2 3 4 6 8 8 5 8 6 7 20 23 22 22 22 19 22 25 27 27
12 11 13 11 10 9 10 9 9 7 6 4 4 4 2 0 2 2 3 4 5 6 5 5 2 7 7 7 23 20 18 19 19 21 24 26 27 27
10 10 10 10 13 13 8 9 8 6 6 6 5 3 2 3 2 2 1 2 3 2 1 5 4 9 6 8 7 13 15 18 20 22 24 25 26 26
9 9 12 11 15 11 6 6 5 6 5 3 2 1 2 3 2 1 2 3 3 4 2 2 4 5 7 3 0 6 6 16 19 21 23 22 20 10
7 6 5 13 12 9 7 3 3 6 4 2 1 2 3 1 1 2 2 3 3 6 5 5 3 4 4 7 4 7 9 7 9 12 16 17 20 18
8 5 6 12 11 9 5 5 6 5 2 1 3 2 1 2 1 1 1 3 5 9 9 6 5 4 6 9 9 6 8 10 8 6 8 12 18 23
6 9 13 10 8 4 4 3 5 1 2 3 2 2 1 1 1 2 3 4 7 9 8 8 8 9 8 9 11 11 12 4 10 7 5 8 9 9
10 6 8 6 4 4 2 4 3 3 2 3 3 2 1 1 2 2 4 4 6 7 8 9 8 8 9 10 10 13 10 9 7 10 9 9 9 10
7 4 3 2 3 3 3 3 2 3 5 4 3 2 2 3 4 3 4 4 7 7 8 6 5 9 10 12 12 12 11 11 9 10 10 11 10 10
2 2 4 3 4 3 3 3 3 3 3 2 2 3 4 4 5 4 4 6 8 8 8 6 6 7 8 11 22 12 11 11 10 10 11 12 13 10
2 3 3 5 5 4 3 2 3 3 2 2 4 5 4 5 5 6 6 7 8 8 7 6 6 6 9 12 4 14 11 9 9 10 10 10 14 12
4 5 5 4 4 4 3 4 3 3 4 5 5 5 4 5 6 7 6 7 7 7 7 6 7 8 9 9 9 11 21 13 10 11 12 11 15 28
5 5 4 4 3 3 3 3 4 4 3 4 5 5 5 6 7 7 7 8 9 7 9 9 8 12 6 6 9 9 9 21 20 14 13 12 15 14
6 6 4 4 5 5 5 4 4 5 6 6 7 6 6 6 7 7 7 7 7 8 9 8 7 7 7 9 13 14 11 10 15 23 26 25 13 14
7 6 6 6 5 5 4 5 6 6 6 7 6 6 6 7 7 7 7 7 8 8 9 9 7 7 9 10 13 12 17 16 11 12 11 22 26 28
Wind_Direction
147 131 111 103 99 96 121 136 135 151 146 171 162 174 150 159 136 195 277 66 317 309 323 324 321 326 327 325 322 320 321 320 315 313 311 308 308 303
113 104 100 92 87 85 93 82 83 130 123 154 135 152 157 154 147 252 55 289 275 297 317 319 321 323 321 321 320 320 317 315 314 312 310 307 304 301
108 112 101 106 98 97 91 82 78 103 121 100 117 128 148 162 180 207 312 329 317 310 312 316 316 316 322 321 319 318 317 316 314 314 311 307 303 302
111 100 98 95 101 107 110 97 79 101 130 125 135 148 162 148 98 307 333 312 303 302 307 310 314 315 318 319 317 315 315 314 313 311 308 305 300 299
103 104 112 109 100 100 96 96 91 96 111 129 131 135 120 134 341 336 274 264 282 299 304 308 314 320 319 312 311 309 309 311 310 307 303 298 296 297
100 96 97 106 111 107 105 101 106 101 104 113 116 125 148 110 227 266 316 318 307 299 304 306 317 308 312 309 305 306 308 309 308 308 306 302 300 297
87 79 85 96 102 111 112 108 111 106 105 108 110 138 152 182 196 352 291 307 304 270 326 308 308 305 301 301 297 299 303 307 307 303 303 304 301 298
106 100 101 103 107 107 103 104 101 115 121 125 132 166 168 159 161 304 310 337 320 94 345 305 307 291 287 288 293 299 304 303 303 301 307 307 309 310
109 112 113 106 103 104 104 97 88 91 100 122 144 162 152 125 243 290 321 285 272 312 324 283 298 286 275 292 294 298 298 298 298 295 309 314 309 307
116 121 116 119 121 125 120 114 105 97 108 113 118 127 120 153 305 297 293 295 292 278 264 271 287 292 297 291 291 295 295 300 296 296 309 307 306 305
109 112 117 123 137 132 130 129 127 114 103 109 100 83 306 301 292 299 305 330 280 255 310 281 321 314 301 286 274 284 300 301 301 300 298 306 307 309
108 114 125 136 142 140 135 137 131 150 157 146 167 286 277 273 308 318 286 243 290 309 114 298 319 339 322 307 237 276 279 293 300 300 306 307 305 306
127 127 126 136 134 135 123 114 141 128 123 59 296 245 225 224 197 199 232 256 258 249 267 294 303 313 244 298 286 306 286 286 300 297 295 307 307 304
128 131 133 139 143 137 126 132 119 99 93 220 232 242 229 232 224 202 227 250 266 270 288 303 270 278 283 289 282 299 300 293 279 288 300 284 299 304
131 139 137 131 127 113 116 113 103 194 210 220 234 240 220 253 296 260 236 231 247 254 263 260 258 270 265 266 280 290 298 298 293 277 277 301 294 302
117 91 111 109 127 126 158 168 211 204 222 234 231 229 239 236 258 251 270 281 281 279 268 251 239 238 260 258 268 279 281 284 302 295 289 292 298 285
96 90 112 161 186 193 201 198 211 197 217 215 224 243 262 260 260 246 256 265 260 279 279 270 237 231 244 260 269 266 278 276 274 291 301 288 284 285
94 149 186 193 205 202 204 212 206 212 233 222 230 237 247 253 265 260 254 255 265 266 272 277 280 278 278 256 238 259 258 269 277 279 276 291 288 281
202 191 202 199 212 207 211 208 224 212 164 238 251 250 247 253 256 256 253 255 260 264 262 269 272 267 278 277 266 266 279 285 292 288 282 275 282 286
222 219 214 211 206 205 206 218 221 204 212 226 235 238 233 244 255 254 252 257 264 269 273 268 262 252 248 264 281 280 281 282 280 281 280 276 275 284
215 221 217 213 211 208 218 220 220 229 231 241 248 247 243 239 251 254 258 256 260 260 264 261 257 260 270 296 276 270 271 270 278 283 287 286 293 297
234 222 215 201 209 217 221 223 230 234 234 230 234 236 238 238 250 255 252 259 256 258 264 272 278 269 254 247 264 277 281 279 279 287 286 281 293 297
226 223 216 214 210 218 220 226 232 243 240 240 242 246 246 249 248 250 255 255 258 260 262 270 268 259 258 258 265 275 277 282 286 293 279 283 293 298